User: anonymous
Location: Caltech
(34.1382°N, 118.1253°W)
Time: 02:05:51
(UTC-07:00)
Language:

ASTRO E2 - Orbit

View from above orbital plane
View from above orbital plane
View from above satellite
View from above satellite

Ground track
Ground track

The orbit data is extracted from the following two-line orbital elements,

1 28773U 05025A   14237.96402042  .00004645  00000-0  28005-3 0  3488
2 28773 031.3831 088.7865 0005036 165.2763 306.9420 15.09230163501745
Epoch (UTC): 25 August 2014 23:08:11
Eccentricity: 0.0005036
inclination: 31.3831°
perigee height: 535 km
apogee height: 542 km
right ascension of ascending node: 88.7865°
argument of perigee: 165.2763°
revolutions per day: 15.09230163
mean anomaly at epoch: 306.9420°
orbit number at epoch: 50174

The dashed part of the orbit path shows where the satellite is in the earth's shadow,  

DLR